Date,TemperatureHighF,TemperatureAvgF,TemperatureLowF,DewpointHighF,DewpointAvgF,DewpointLowF,HumidityHigh,HumidityAvg,HumidityLow,PressureMaxIn,PressureMinIn,WindSpeedMaxMPH,WindSpeedAvgMPH,GustSpeedMaxMPH,PrecipitationSumIn
2013-1-1,50,35,22,19,14,9,82,47,22,30.26,30.15,11,3,16,0.00
2013-1-2,55,37,22,17,13,8,71,41,16,30.24,30.10,11,2,14,0.00
2013-1-3,54,36,22,18,11,0,75,43,13,30.27,30.13,8,2,14,0.00
2013-1-4,55,34,17,12,8,1,75,40,11,30.31,30.19,4,1,6,0.00
2013-1-5,58,37,21,13,8,1,68,35,11,30.32,30.13,8,1,10,0.00
2013-1-6,50,42,33,36,26,7,92,56,27,30.14,29.98,17,7,24,0.08
2013-1-7,54,40,30,36,29,23,97,70,31,30.16,30.01,11,3,14,0.00
2013-1-8,66,44,28,33,28,22,89,61,23,30.23,30.09,8,2,10,0.00
2013-1-9,66,49,31,34,30,22,91,54,24,30.23,29.88,21,4,27,0.00
2013-1-10,56,39,32,39,26,16,98,61,24,30.02,29.84,22,12,34,0.14
2013-1-11,40,33,27,21,19,15,70,55,38,30.11,30.00,17,7,24,0.00
2013-1-12,41,28,20,21,16,6,88,64,23,30.14,30.02,4,1,6,0.00
2013-1-13,42,30,17,17,10,2,86,48,23,30.16,30.00,9,2,13,0.00
2013-1-14,38,28,16,6,0,-8,59,32,15,30.34,30.14,11,3,16,0.00
2013-1-15,52,35,20,20,13,3,65,42,25,30.45,30.30,9,2,14,0.00
2013-1-16,60,42,25,21,17,13,76,40,17,30.43,30.27,11,2,15,0.00
2013-1-17,63,43,25,22,16,8,79,39,13,30.36,30.21,12,2,16,0.00
2013-1-18,64,41,24,22,16,10,81,43,13,30.30,30.18,5,1,6,0.00
2013-1-19,66,41,22,22,15,8,82,44,11,30.34,30.19,4,1,6,0.00
2013-1-20,67,41,22,20,13,5,79,41,10,30.28,30.14,5,1,7,0.00
2013-1-21,68,42,23,18,11,0,72,35,9,30.26,30.13,9,1,11,0.00
2013-1-22,68,44,22,17,11,5,65,32,10,30.24,30.11,8,2,11,0.00
2013-1-23,68,51,36,35,22,12,53,34,15,30.20,30.08,12,3,18,0.00
2013-1-24,62,52,47,48,42,31,87,69,41,30.24,30.09,13,3,19,0.08
2013-1-25,55,49,45,49,46,41,96,89,75,30.23,30.01,7,2,9,0.27
2013-1-26,60,52,48,51,48,45,97,86,60,30.03,29.90,14,5,20,0.04
2013-1-27,50,45,37,46,35,25,89,68,48,30.00,29.91,18,9,24,0.00
2013-1-28,47,39,32,29,24,17,77,55,33,30.16,29.98,17,7,24,0.00
2013-1-29,58,42,28,33,27,23,87,58,29,30.25,30.07,14,3,20,0.00
2013-1-30,66,47,34,33,30,27,86,57,25,30.36,30.22,7,2,8,0.00
2013-1-31,67,48,31,35,31,26,92,58,22,30.31,30.17,9,2,13,0.00
2013-2-1,69,49,31,35,31,25,90,55,20,30.28,30.16,4,1,8,0.00
2013-2-2,66,52,40,43,33,27,82,52,23,30.31,30.19,7,2,9,0.00
2013-2-3,64,53,41,48,39,30,92,62,29,30.24,30.06,10,2,14,0.03
2013-2-4,67,50,34,36,29,16,90,53,14,30.16,30.03,11,2,15,0.00
2013-2-5,70,51,31,40,31,22,86,52,16,30.09,29.93,12,4,16,0.00
2013-2-6,64,49,37,40,29,15,82,51,16,30.12,29.98,13,3,18,0.00
2013-2-7,68,47,28,40,27,12,79,54,12,30.12,29.89,21,7,29,0.00
2013-2-8,45,39,33,36,30,26,95,74,50,29.92,29.80,22,10,31,0.04
2013-2-9,49,39,31,29,27,22,78,63,37,30.05,29.85,15,7,21,0.00
2013-2-10,51,39,26,32,26,13,89,63,23,30.06,29.93,13,4,16,0.00
2013-2-11,50,39,29,33,15,-2,93,47,12,30.23,30.02,15,4,23,0.01
2013-2-12,56,38,21,18,12,9,72,39,16,30.33,30.20,10,2,13,0.00
2013-2-13,62,43,25,23,17,13,71,40,16,30.29,30.14,10,2,13,0.00
2013-2-14,66,47,28,23,21,16,76,40,16,30.27,30.15,13,2,20,0.00
2013-2-15,67,50,30,25,18,12,72,34,12,30.33,30.24,14,3,22,0.00
2013-2-16,71,48,28,20,14,7,64,31,9,30.33,30.03,12,2,17,0.00
2013-2-17,68,49,29,30,19,12,66,36,12,30.04,29.90,17,5,24,0.00
2013-2-18,68,48,29,32,24,14,83,45,14,30.05,29.88,15,4,22,0.00
2013-2-19,50,42,32,37,33,28,98,72,45,29.91,29.65,24,11,34,0.07
2013-2-20,48,36,28,32,27,22,99,71,41,29.97,29.64,17,7,25,0.20
2013-2-21,51,38,28,32,24,13,95,62,22,31.01,29.94,12,3,17,0.01
2013-2-22,59,42,26,30,23,12,91,56,17,30.20,30.08,8,1,10,0.00
2013-2-23,63,46,30,30,27,11,85,52,21,30.15,29.87,22,7,29,0.00
2013-2-24,54,43,29,14,4,-4,53,22,9,30.23,30.08,20,5,30,0.00
2013-2-25,64,44,24,18,14,5,75,35,11,30.24,30.02,12,3,18,0.00
2013-2-26,62,46,30,24,14,5,69,33,12,30.21,30.05,10,2,16,0.00
2013-2-27,61,44,28,19,11,3,65,31,11,30.35,30.19,12,2,16,0.00
2013-2-28,69,48,26,19,12,6,62,29,10,30.41,30.30,8,1,16,0.00
2013-3-1,74,52,30,23,18,13,63,31,11,30.43,30.26,14,2,18,0.00
2013-3-2,77,56,33,25,21,16,68,31,11,30.35,30.12,12,3,17,0.00
2013-3-3,69,59,47,36,26,18,60,29,16,30.15,29.94,25,10,34,0.00
2013-3-4,69,55,41,38,34,28,78,49,22,30.10,29.99,9,2,12,0.00
2013-3-5,70,54,36,43,35,27,78,53,21,30.10,29.96,21,8,31,0.00
2013-3-6,62,50,41,40,37,32,83,61,37,30.08,29.96,21,9,31,0.00
2013-3-7,53,46,42,38,36,32,83,68,55,29.97,29.82,24,9,32,0.00
2013-3-8,47,42,34,38,33,26,95,73,47,29.98,29.73,20,9,29,0.36
2013-3-9,59,46,37,36,32,26,86,61,31,30.24,29.96,16,6,20,0.00
2013-3-10,65,48,30,34,24,10,95,48,13,30.35,30.19,10,2,15,0.00
2013-3-11,73,52,31,30,23,12,83,41,11,30.25,30.08,8,2,10,0.00
2013-3-12,80,58,36,31,25,18,78,37,11,30.20,30.08,9,2,15,0.00
2013-3-13,85,61,39,32,27,20,70,34,10,30.25,30.12,9,2,16,0.00
2013-3-14,88,65,41,36,30,23,71,34,10,30.23,30.08,8,2,15,0.00
2013-3-15,86,65,45,39,31,20,71,34,10,30.14,29.95,18,5,25,0.00
2013-3-16,81,65,49,33,28,16,52,27,9,30.03,29.90,19,6,26,0.00
2013-3-17,78,63,48,37,24,6,58,27,6,30.06,29.92,17,6,23,0.00
2013-3-18,76,59,42,40,28,16,65,35,11,30.09,29.97,14,3,21,0.00
2013-3-19,78,64,54,43,28,12,64,28,14,30.13,30.01,19,7,29,0.00
2013-3-20,74,61,48,42,35,26,66,41,17,30.12,29.97,21,8,30,0.00
2013-3-21,76,60,50,41,32,15,70,39,10,29.99,29.81,17,7,26,0.00
2013-3-22,72,56,41,34,24,6,66,34,8,30.00,29.85,18,5,25,0.00
2013-3-23,71,56,36,27,14,0,63,26,7,30.10,29.97,14,3,20,0.00
2013-3-24,74,57,37,21,11,-2,39,18,9,30.10,29.95,10,2,13,0.00
2013-3-25,78,60,38,35,23,18,50,26,12,30.04,29.92,16,4,24,0.00
2013-3-26,76,61,44,37,28,20,57,31,13,29.98,29.88,16,6,24,0.00
2013-3-27,73,60,48,41,35,27,62,40,24,30.04,29.91,19,7,29,0.00
2013-3-28,76,60,46,43,38,31,82,48,20,30.33,30.00,18,5,25,0.00
2013-3-29,80,62,42,40,34,24,73,40,14,30.15,30.04,16,4,24,0.00
2013-3-30,78,66,57,41,35,26,52,33,17,30.12,30.02,20,7,26,0.00
2013-3-31,67,59,51,45,38,23,71,48,26,30.11,29.99,22,10,30,0.00
2013-4-1,68,55,45,43,38,20,78,55,18,30.12,30.00,19,9,27,0.00
2013-4-2,74,58,40,38,34,23,78,45,17,30.13,30.00,12,3,18,0.00
2013-4-3,82,63,41,36,31,23,72,37,11,30.15,30.01,14,3,20,0.00
2013-4-4,78,64,49,43,33,19,57,34,11,30.10,29.99,19,7,27,0.00
2013-4-5,74,61,50,47,41,31,78,51,23,30.09,29.96,18,8,27,0.00
2013-4-6,74,60,46,44,35,29,75,41,19,30.10,29.96,17,6,24,0.00
2013-4-7,76,61,49,40,32,22,66,37,14,30.04,29.83,17,6,27,0.00
2013-4-8,56,51,48,45,32,20,76,49,31,29.85,29.65,28,14,41,0.00
2013-4-9,67,54,40,33,18,2,58,29,8,30.09,29.83,16,6,23,0.00
2013-4-10,75,59,35,24,15,7,47,22,8,30.18,30.02,17,4,22,0.00
2013-4-11,80,62,44,38,27,18,49,28,14,30.07,29.78,17,6,25,0.00
2013-4-12,82,65,46,39,33,22,66,35,12,29.95,29.81,12,3,17,0.00
2013-4-13,80,65,47,42,33,20,67,35,15,29.92,29.76,24,10,34,0.00
2013-4-14,77,60,49,44,40,35,76,50,23,29.83,29.72,19,9,30,0.00
2013-4-15,62,53,46,42,40,36,79,63,39,29.83,29.73,27,15,39,0.00
2013-4-16,58,48,39,40,23,13,80,40,20,30.00,29.76,24,14,34,0.00
2013-4-17,63,52,39,26,11,2,47,22,10,30.19,29.98,16,6,23,0.00
2013-4-18,67,54,39,10,6,1,29,15,8,30.29,30.17,16,3,21,0.00
2013-4-19,78,59,34,18,9,0,31,15,8,30.26,30.02,13,3,18,0.00
2013-4-20,85,67,48,28,22,17,34,19,9,30.10,29.96,10,2,14,0.00
2013-4-21,87,69,47,31,26,18,47,23,9,30.08,29.96,17,5,25,0.00
2013-4-22,87,69,49,37,30,23,47,27,10,30.04,29.86,20,6,26,0.00
2013-4-23,80,66,49,39,23,9,62,26,9,30.04,29.88,12,4,20,0.00
2013-4-24,83,64,48,46,29,10,75,33,9,29.97,29.81,18,4,25,0.00
2013-4-25,78,61,48,44,40,32,78,51,20,30.11,29.91,17,6,23,0.00
2013-4-26,86,66,44,42,33,21,78,37,9,30.20,30.08,17,4,24,0.00
2013-4-27,89,71,48,33,26,15,50,23,7,30.23,30.03,12,3,15,0.00
2013-4-28,92,73,49,39,28,19,39,21,8,30.10,29.90,16,4,22,0.00
2013-4-29,92,73,51,37,28,18,45,22,7,29.99,29.80,21,6,30,0.00
2013-4-30,86,72,61,48,35,24,60,28,14,29.88,29.76,23,10,30,0.00
2013-5-1,82,67,48,47,19,-4,77,28,5,30.20,29.86,17,5,27,0.00
2013-5-2,79,66,54,6,3,-2,13,8,5,30.34,30.17,14,4,19,0.00
2013-5-3,88,67,40,19,10,-1,21,12,5,30.19,29.88,12,2,15,0.00
2013-5-4,84,67,48,35,20,11,34,18,7,29.92,29.73,25,10,35,0.00
2013-5-5,63,56,50,45,37,21,80,51,21,29.94,29.77,20,10,31,0.00
2013-5-6,63,54,50,47,43,39,82,67,46,30.01,29.90,18,10,27,0.00
2013-5-7,66,55,47,42,39,35,76,57,33,30.05,29.96,18,10,26,0.00
2013-5-8,73,59,48,44,40,33,73,53,24,30.10,29.99,18,7,24,0.00
2013-5-9,79,62,46,46,40,30,78,49,18,30.17,30.00,19,4,27,0.00
2013-5-10,86,70,51,46,38,26,69,38,12,30.17,30.05,14,3,26,0.00
2013-5-11,92,75,53,42,34,26,59,28,10,30.20,30.08,14,2,20,0.00
2013-5-12,95,79,56,41,31,24,39,21,8,30.21,30.02,15,3,20,0.00
2013-5-13,97,80,58,40,32,27,40,21,9,30.14,29.98,15,4,20,0.00
2013-5-14,90,74,57,34,26,14,35,19,7,30.05,29.92,26,10,35,0.00
2013-5-15,89,72,56,46,35,22,49,28,14,30.03,29.93,20,8,25,0.00
2013-5-16,83,68,52,47,41,31,77,42,18,29.99,29.87,18,7,25,0.00
2013-5-17,75,63,56,49,46,40,73,55,32,30.01,29.90,18,10,27,0.00
2013-5-18,84,67,50,48,35,21,83,38,11,30.07,29.95,18,7,25,0.00
2013-5-19,87,72,55,38,27,20,39,20,10,30.07,29.92,16,5,23,0.00
2013-5-20,86,70,50,30,23,15,39,19,9,30.11,29.97,14,3,19,0.00
2013-5-21,88,72,50,36,27,14,31,20,11,30.03,29.85,21,8,30,0.00
2013-5-22,81,68,56,49,37,26,70,35,14,30.64,29.76,23,11,34,0.00
2013-5-23,75,62,49,47,41,30,81,51,20,29.95,29.82,19,9,26,0.10
2013-5-24,78,63,46,46,38,21,82,46,12,29.99,29.91,23,8,30,0.00
2013-5-25,79,65,50,45,34,18,69,37,11,30.00,29.93,20,8,27,0.00
2013-5-26,79,66,52,47,39,29,66,40,19,30.04,29.95,20,9,30,0.00
2013-5-27,87,68,52,47,36,24,72,36,11,30.02,29.88,20,7,29,0.00
2013-5-28,80,67,56,48,39,28,74,38,21,29.93,29.80,23,9,37,0.00
2013-5-29,85,71,53,44,36,22,62,32,11,29.92,29.79,25,10,34,0.00
2013-5-30,93,75,55,48,34,16,49,27,7,29.94,29.83,14,5,22,0.00
2013-5-31,96,77,58,43,30,25,50,21,9,30.02,29.90,14,3,37,0.00
2013-6-4,93,81,65,38,30,22,34,17,8,29.99,29.89,19,11,27,0.00
2013-6-5,99,77,53,40,32,20,57,24,9,30.01,29.89,20,5,28,0.00
2013-6-6,102,80,57,42,34,25,47,23,8,29.99,29.86,19,5,27,0.00
2013-6-7,105,83,59,41,33,26,35,20,7,29.96,29.80,16,4,22,0.00
2013-6-8,106,84,62,46,35,27,40,21,7,29.94,29.83,21,6,31,0.00
2013-6-9,97,80,62,46,34,19,48,23,6,29.95,29.88,24,9,36,0.00
2013-6-10,86,74,65,44,31,14,42,23,9,30.00,29.88,24,11,36,0.00
2013-6-11,98,78,56,41,32,24,49,23,9,30.03,29.92,18,5,25,0.00
2013-6-12,93,77,59,44,33,24,41,21,12,30.02,29.95,21,7,32,0.00
2013-6-13,95,77,57,46,37,23,62,28,10,30.06,29.93,17,6,23,0.00
2013-6-14,94,74,54,44,29,14,49,23,6,30.00,29.85,21,6,27,0.00
2013-6-15,90,74,52,43,29,9,59,26,5,30.01,29.90,20,6,28,0.00
2013-6-16,94,75,51,43,30,16,57,24,9,30.06,29.96,15,5,21,0.00
2013-6-17,95,77,56,44,30,20,33,19,10,30.06,29.92,17,5,23,0.00
2013-6-18,91,75,58,45,35,26,45,25,13,30.00,29.85,20,7,28,0.00
2013-6-19,90,72,58,44,27,4,51,24,4,29.97,29.84,17,8,26,0.00
2013-6-20,90,72,55,43,25,16,38,19,8,29.96,29.85,16,6,21,0.00
2013-6-21,90,74,56,43,33,18,46,24,10,29.97,29.87,17,6,25,0.00
2013-6-22,94,76,58,48,37,24,53,29,8,29.97,29.83,16,5,22,0.00
2013-6-23,87,73,57,48,42,36,61,36,18,29.91,29.80,20,8,27,0.00
2013-6-24,82,69,58,51,48,40,72,48,28,29.98,29.82,20,9,28,0.00
2013-6-25,92,77,59,55,50,43,76,44,20,30.04,29.93,18,6,24,0.00
2013-6-26,99,82,64,54,50,41,67,36,15,30.08,29.98,17,5,24,0.00
2013-6-27,102,86,66,52,46,38,54,29,13,30.14,30.04,17,5,25,0.00
2013-6-28,107,87,65,50,41,29,48,23,8,30.12,29.96,16,5,22,0.00
2013-6-29,109,89,67,46,39,32,34,19,8,30.04,29.88,16,4,22,0.00
2013-6-30,111,91,69,46,40,30,40,20,7,29.99,29.84,17,5,25,0.00
2013-7-1,104,88,74,50,43,37,38,22,13,30.01,29.90,21,7,28,0.00
2013-7-2,102,86,70,47,40,36,33,21,12,30.08,29.95,19,6,27,0.00
2013-7-3,106,86,73,50,45,41,35,25,12,30.03,29.85,18,5,26,0.00
2013-7-4,104,88,70,48,45,41,43,25,13,29.94,29.80,20,6,28,0.00
2013-7-5,100,86,69,52,46,40,39,26,15,29.91,29.80,19,7,25,0.00
2013-7-6,100,84,68,52,43,29,51,27,10,29.91,29.81,18,6,25,0.00
2013-7-7,102,85,64,50,40,26,51,25,8,29.97,29.85,17,5,26,0.00
2013-7-8,102,85,62,51,37,28,52,23,8,30.09,29.96,17,4,23,0.00
2013-7-9,103,86,64,46,33,27,28,17,8,30.14,30.01,15,4,22,0.00
2013-7-10,102,88,76,48,38,34,31,18,10,30.09,29.95,15,4,22,0.00
2013-7-11,86,79,74,56,51,47,53,39,29,30.06,29.95,13,5,17,0.00
2013-7-12,96,82,70,55,47,33,54,32,18,30.02,29.91,16,5,24,0.00
2013-7-13,99,82,62,45,40,32,47,24,11,30.07,29.92,16,4,25,0.00
2013-7-14,101,84,67,44,40,33,40,23,13,30.06,29.90,16,4,22,0.00
2013-7-15,98,83,67,44,39,33,39,23,12,29.99,29.88,20,6,30,0.00
2013-7-16,93,81,65,36,26,15,29,15,6,30.06,29.91,20,8,29,0.00
2013-7-17,98,79,55,31,23,14,30,14,6,30.12,30.01,16,4,24,0.00
2013-7-18,103,82,59,34,27,20,24,15,7,30.10,29.92,15,4,20,0.00
2013-7-19,106,85,64,41,34,28,30,18,8,30.03,29.86,17,4,23,0.00
2013-7-20,98,85,75,61,47,33,44,28,18,29.97,29.85,16,5,23,0.00
2013-7-21,90,81,74,64,59,54,72,48,31,30.03,29.88,23,6,34,0.00
2013-7-22,91,77,70,69,62,58,79,60,35,30.07,29.97,16,4,25,0.26
2013-7-23,96,80,66,64,56,49,84,48,24,30.09,29.96,17,4,23,0.00
2013-7-24,100,83,68,59,51,36,72,37,13,30.06,29.92,17,4,28,0.00
2013-7-25,102,85,67,56,47,32,66,31,12,30.11,29.97,19,6,27,0.00
2013-7-26,94,83,75,62,51,43,56,35,19,30.16,30.06,17,3,26,0.00
2013-7-27,99,84,74,59,50,43,58,33,17,30.11,29.92,17,5,24,0.00
2013-7-28,94,81,69,51,42,30,50,28,11,29.98,29.87,22,7,31,0.00
2013-7-29,94,80,62,46,32,18,42,21,7,30.09,29.93,21,8,27,0.00
2013-7-30,97,80,62,50,44,36,51,30,14,30.14,30.03,20,6,27,0.00
2013-7-31,98,80,62,49,40,19,55,28,6,30.14,29.98,22,7,32,0.00
2013-8-1,94,78,58,44,28,2,44,21,3,30.06,29.92,20,6,27,0.00
2013-8-2,94,76,57,45,38,18,57,29,7,30.03,29.93,17,6,25,0.00
2013-8-3,96,78,58,44,34,21,55,26,7,30.05,29.95,16,5,23,0.00
2013-8-4,98,79,57,42,31,16,50,23,6,30.07,29.96,17,6,25,0.00
2013-8-5,97,79,57,34,24,13,35,16,5,30.07,29.96,18,6,26,0.00
2013-8-6,95,78,58,29,20,8,24,12,5,30.07,29.98,21,6,32,0.00
2013-8-7,93,77,59,34,28,20,31,17,10,30.09,29.99,17,6,23,0.00
2013-8-8,89,76,57,38,28,17,39,20,8,30.05,29.94,21,8,30,0.00
2013-8-9,89,73,54,45,29,17,38,21,8,30.03,29.91,22,8,31,0.00
2013-8-10,92,73,52,41,32,23,55,26,9,30.07,29.97,18,5,25,0.00
2013-8-11,94,76,56,42,35,27,49,26,10,30.07,29.93,17,4,25,0.00
2013-8-12,97,78,56,42,35,27,51,25,8,30.05,29.94,15,4,21,0.00
2013-8-13,100,80,57,37,31,24,43,20,7,30.07,29.94,16,3,22,0.00
2013-8-14,102,82,60,34,28,14,32,16,4,30.06,29.92,16,4,23,0.00
2013-8-15,100,84,64,44,37,28,34,20,11,30.06,29.96,18,5,28,0.00
2013-8-16,100,84,66,50,45,40,44,27,15,30.08,29.97,20,6,28,0.00
2013-8-17,102,85,68,49,45,38,48,27,12,30.07,29.91,18,6,27,0.00
2013-8-18,100,84,66,56,46,38,40,28,17,30.04,29.90,15,4,24,0.00
2013-8-19,97,85,77,65,54,49,57,37,22,30.07,29.93,15,4,19,0.01
2013-8-20,101,84,68,58,45,25,67,31,7,30.03,29.91,17,6,27,0.00
2013-8-21,100,85,66,49,41,33,51,23,12,30.10,29.93,19,6,25,0.00
2013-8-22,100,86,70,42,39,34,32,20,13,30.05,29.91,17,6,25,0.00
2013-8-23,98,84,68,52,37,28,34,19,10,30.00,29.85,19,7,26,0.00
2013-8-24,96,81,62,51,35,24,40,22,8,29.98,29.86,17,6,27,0.00
2013-8-25,94,80,66,61,50,36,67,39,14,30.06,29.92,18,6,25,0.00
2013-8-26,82,74,70,65,62,59,83,68,48,30.08,29.96,14,6,21,0.00
2013-8-27,94,79,66,65,59,53,87,54,26,30.02,29.88,13,4,21,0.00
2013-8-28,97,82,67,57,54,51,64,40,22,30.04,29.92,16,5,24,0.00
2013-8-29,96,83,69,61,55,50,55,39,27,30.11,30.01,14,3,24,0.00
2013-8-30,92,81,73,70,63,56,72,55,33,30.13,30.02,12,4,17,0.05
2013-8-31,92,81,75,68,63,57,71,56,34,30.10,29.96,18,6,26,0.01
2013-9-1,96,82,71,63,56,42,74,45,17,30.05,29.93,18,5,24,0.00
2013-9-2,98,82,66,58,52,47,70,39,18,30.05,29.92,17,5,25,0.00
2013-9-3,98,85,72,56,52,49,53,35,20,30.05,29.94,17,4,24,0.00
2013-9-4,98,83,70,66,55,51,60,40,21,30.08,29.98,18,3,26,0.05
2013-9-5,99,84,69,62,54,45,69,38,18,30.06,29.95,17,4,29,0.00
2013-9-6,100,84,69,53,49,44,53,31,16,30.05,29.92,16,4,27,0.00
2013-9-7,95,82,73,59,54,46,55,39,21,30.04,29.93,15,4,22,0.00
2013-9-8,96,80,63,57,48,33,73,37,12,29.99,29.85,13,3,20,0.00
2013-9-9,95,81,71,57,48,38,55,34,15,29.95,29.80,15,5,22,0.00
2013-9-10,90,77,64,58,46,38,60,35,17,29.99,29.87,17,5,22,0.00
2013-9-11,91,76,60,47,41,35,59,33,15,30.04,29.96,17,5,24,0.00
2013-9-12,93,76,59,46,38,31,58,30,11,30.04,29.91,13,4,20,0.00
2013-9-13,95,77,58,42,37,31,44,25,14,29.98,29.79,12,3,17,0.00
2013-9-14,98,80,62,45,39,36,45,25,12,29.90,29.77,13,2,17,0.00
2013-9-15,99,81,61,41,38,34,44,23,12,29.93,29.83,14,3,22,0.00
2013-9-16,96,81,61,41,37,34,45,23,12,29.98,29.85,19,6,27,0.00
2013-9-17,90,78,65,44,34,27,43,22,11,29.92,29.78,20,8,29,0.00
2013-9-18,88,71,54,42,35,25,57,30,11,29.91,29.80,10,2,15,0.00
2013-9-19,93,74,51,41,34,25,55,28,10,29.96,29.83,10,2,15,0.00
2013-9-20,92,72,55,47,34,28,50,27,10,29.93,29.85,21,6,31,0.00
2013-9-21,84,66,51,50,41,16,79,47,8,29.93,29.79,22,8,31,0.00
2013-9-22,76,62,52,46,36,24,66,41,15,30.00,29.84,15,7,21,0.00
2013-9-23,66,52,45,38,35,31,64,54,34,30.05,29.96,2,0,4,0.00
2013-9-25,84,69,57,44,34,24,48,31,13,30.00,29.71,24,15,34,0.00
2013-9-26,68,58,51,46,30,16,66,37,14,29.99,29.76,18,9,26,0.00
2013-9-27,74,58,41,29,23,16,54,29,13,30.12,29.97,11,2,21,0.00
2013-9-28,82,62,41,25,19,13,40,21,10,30.16,30.06,10,2,14,0.00
2013-9-29,89,68,45,23,20,15,38,18,7,30.16,30.01,12,4,17,0.00
2013-9-30,89,68,50,30,24,17,31,20,9,30.09,29.93,14,4,20,0.00
2013-10-7,84,70,46,32,18,10,27,15,7,30.10,29.95,16,5,23,0.00
2013-10-8,78,62,46,47,25,9,74,30,11,29.98,29.78,17,8,24,0.00
2013-10-9,57,50,44,46,41,37,85,70,53,29.81,29.69,22,11,33,0.06
2013-10-10,66,51,38,40,37,35,91,63,34,30.04,29.79,14,4,18,0.01
2013-10-11,76,56,37,40,36,28,90,54,18,30.10,29.97,8,2,12,0.00
2013-10-12,76,59,40,43,35,28,80,46,18,30.04,29.90,14,3,22,0.00
2013-10-13,71,59,46,42,32,26,62,37,20,30.09,29.91,15,5,21,0.00
2013-10-14,72,56,37,36,28,22,73,39,16,30.17,30.04,10,2,15,0.00
2013-10-15,74,57,37,28,23,15,59,31,14,30.12,30.01,12,2,17,0.00
2013-10-16,63,48,39,25,21,17,49,35,20,30.23,30.10,5,2,7,0.00
2013-10-21,83,71,55,21,16,3,26,13,8,30.20,29.99,8,3,12,0.00
2013-10-22,83,63,40,23,19,13,41,21,10,30.12,29.98,10,2,22,0.00
2013-10-23,82,62,43,38,23,17,49,25,10,30.04,29.92,11,2,25,0.00
2013-10-24,81,61,41,32,24,17,56,30,9,30.10,29.97,10,2,13,0.00
2013-10-25,83,62,40,28,23,17,50,26,10,30.19,30.08,10,2,12,0.00
2013-10-26,83,64,43,27,21,15,39,21,11,30.21,30.06,12,3,22,0.00
2013-10-27,82,62,44,45,27,20,75,29,11,30.09,29.76,24,8,39,0.00
2013-10-28,56,52,46,46,40,36,77,64,51,29.92,29.71,29,18,43,0.00
2013-10-29,57,49,41,39,37,33,79,63,45,30.02,29.88,18,8,26,0.00
2013-10-30,63,48,34,39,30,22,88,55,23,30.12,29.99,9,2,12,0.00
2013-10-31,71,50,31,27,22,16,66,37,14,30.20,30.09,6,1,9,0.00
2013-11-1,75,54,35,25,20,14,46,28,14,30.24,30.09,10,2,14,0.00
2013-11-2,74,55,34,31,24,18,55,33,14,30.13,29.91,12,2,22,0.00
2013-11-3,73,57,42,39,32,26,73,43,19,29.94,29.82,12,4,17,0.00
2013-11-4,64,51,41,41,30,18,81,50,21,30.03,29.80,13,3,18,0.00
2013-11-5,61,48,34,22,11,3,53,25,12,30.27,30.01,12,3,18,0.00
2013-11-6,71,49,28,12,6,2,39,20,8,30.37,30.23,8,1,11,0.00
2013-11-7,74,51,33,20,11,1,34,21,11,30.27,30.10,5,1,7,0.00
2013-11-8,80,55,36,18,13,9,38,21,8,30.13,29.99,10,2,14,0.00
2013-11-9,78,55,35,16,11,6,33,19,8,30.15,30.03,9,2,13,0.00
2013-11-10,76,53,37,19,14,6,33,22,11,30.21,30.12,5,1,8,0.00
2013-11-11,76,54,34,23,18,9,43,27,13,30.24,30.12,10,2,12,0.00
2013-11-12,69,54,39,26,21,15,46,29,16,30.30,30.20,6,1,9,0.00
2013-11-13,79,55,36,23,19,12,51,27,10,30.24,30.07,6,1,8,0.00
2013-11-14,78,58,36,27,19,11,43,24,11,30.13,29.80,11,2,16,0.00
2013-11-15,64,56,42,43,34,22,86,47,22,29.82,29.70,17,7,24,0.00
2013-11-16,59,50,40,44,41,36,92,71,51,29.94,29.75,22,9,30,0.00
2013-11-17,65,51,35,41,37,33,94,62,33,30.13,29.92,8,2,12,0.00
2013-11-18,67,50,34,42,36,29,87,62,33,30.18,30.03,9,2,12,0.00
2013-11-19,65,53,41,44,40,36,94,66,37,30.09,29.92,12,4,16,0.00
2013-11-20,64,54,43,44,43,37,85,68,46,29.96,29.85,17,6,23,0.00
2013-11-21,54,49,45,50,46,41,95,88,78,29.96,29.84,9,3,16,0.87
2013-11-22,45,41,39,42,38,36,95,90,83,30.04,29.93,11,5,16,0.29
2013-11-23,45,42,39,40,39,37,96,89,77,30.14,30.02,8,2,10,0.07
2013-11-24,56,45,38,42,39,36,96,81,50,30.24,30.12,7,2,10,0.01
2013-11-25,61,46,33,40,36,31,99,74,33,30.30,30.21,7,1,9,0.00
2013-11-26,65,48,33,39,34,30,97,63,29,30.29,30.13,13,2,18,0.00
2013-11-27,62,50,38,40,34,27,94,58,31,30.15,29.96,13,5,21,0.00
2013-11-28,63,51,43,33,31,29,66,48,30,30.12,29.95,12,5,18,0.00
2013-11-29,52,45,39,43,38,32,95,78,57,30.25,30.09,7,2,9,0.04
2013-11-30,63,48,35,44,37,30,99,72,30,30.28,30.15,8,2,11,0.00
2013-12-1,66,47,34,38,34,28,96,66,25,30.34,30.21,6,1,9,0.00
2013-12-2,68,50,33,37,30,21,92,53,22,30.25,29.91,10,2,13,0.00
2013-12-3,66,54,41,43,32,23,79,46,24,29.92,29.68,22,11,32,0.00
2013-12-4,48,40,34,31,17,8,66,41,25,29.98,29.76,21,5,30,0.00
2013-12-5,46,37,29,23,16,6,67,43,28,30.08,29.92,9,3,11,0.00
2013-12-6,50,38,26,34,25,16,84,61,33,30.12,30.01,16,6,20,0.00
2013-12-7,47,39,32,37,28,20,88,66,51,30.06,29.88,28,13,44,0.02
2013-12-8,41,33,24,20,17,10,80,53,30,30.22,30.03,14,4,19,0.00
2013-12-9,42,30,19,17,5,-7,87,42,13,30.41,30.19,13,3,18,0.00
2013-12-10,49,31,17,13,6,0,71,39,14,30.39,30.17,6,1,8,0.00
2013-12-11,57,36,19,20,13,7,80,45,17,30.30,30.19,6,1,8,0.00
2013-12-12,58,40,29,23,19,12,75,47,18,30.28,30.14,7,1,10,0.00
2013-12-13,61,42,26,27,18,9,80,46,13,30.32,30.11,9,2,12,0.00
2013-12-14,60,42,26,21,18,14,76,43,17,30.43,30.29,10,2,15,0.00
2013-12-15,66,44,26,25,20,16,76,43,17,30.41,30.25,5,1,8,0.00
2013-12-16,66,45,31,28,24,20,77,49,18,30.35,30.22,7,1,10,0.00
2013-12-17,70,48,33,31,26,21,79,49,17,30.32,30.12,4,1,7,0.00
2013-12-18,64,53,43,33,28,22,62,40,22,30.14,29.76,16,5,25,0.00
2013-12-19,53,45,37,39,36,32,95,73,48,29.84,29.67,21,10,32,0.34
2013-12-20,52,40,31,38,31,21,98,72,30,29.97,29.82,9,2,12,0.00
2013-12-21,65,43,30,36,30,26,90,65,26,30.10,29.88,8,2,10,0.00
2013-12-22,63,44,30,35,31,27,96,65,27,30.33,30.08,6,1,8,0.00
2013-12-23,65,45,31,35,31,28,95,65,27,30.42,30.30,4,1,6,0.00
2013-12-24,68,46,30,37,31,28,95,63,24,30.35,30.22,4,1,5,0.00
2013-12-25,64,44,30,34,26,16,93,58,17,30.40,30.26,8,1,12,0.00
2013-12-26,66,43,26,27,20,7,89,51,10,30.34,30.22,10,1,14,0.00
2013-12-27,68,44,27,29,21,11,81,48,12,30.31,30.14,5,1,8,0.00
2013-12-28,70,48,33,30,22,5,75,46,8,30.15,29.97,12,2,19,0.00
2013-12-29,61,42,29,24,16,4,77,42,11,30.27,30.09,13,2,17,0.00
2013-12-30,64,42,25,24,17,7,78,45,12,30.32,30.21,5,1,7,0.00
2013-12-31,67,43,27,24,18,10,78,45,11,30.27,30.12,4,1,6,0.00
2014-1-1,71,45,28,26,21,12,77,45,13,30.27,30.15,4,1,6,0.00
2014-1-2,68,45,29,28,25,21,82,51,17,30.25,30.10,4,1,5,0.00